Theta_e
339 339 332 330 332 328 327 327 323 325 327 325 322 323 339 349 327 321 339 345 336 338 344 345 353 355 353 354 355 356 360 364 367 365 367 373 374 372 370 372 372 363 358 361 362 356 354 354 353 351 350 349 350 348 344 342 343 344 344 344 344 342 342 341 340 339 338 337 337 338 338 338 337 337 335 334 333 332 332 332 332 333 333 333 333 332 330
330 331 330 331 330 326 326 328 328 328 328 326 325 326 335 343 337 341 352 347 343 346 342 342 351 356 355 354 354 354 357 365 374 371 365 364 367 371 375 375 372 366 362 360 360 358 355 354 353 352 350 349 349 347 344 342 342 343 344 344 343 343 342 341 341 340 339 338 338 338 338 337 337 336 335 334 333 333 333 333 333 334 334 334 333 331 331
324 329 329 327 328 327 323 324 330 330 328 328 329 328 329 332 334 347 357 347 346 348 344 346 354 358 359 357 356 361 363 363 363 362 360 359 360 367 376 377 371 367 365 361 361 360 356 354 354 352 350 350 349 347 344 342 342 342 343 344 343 343 341 338 339 341 340 340 339 339 339 337 336 336 335 334 334 333 334 334 334 334 335 335 333 332 331
318 326 329 326 326 325 319 319 325 328 326 327 328 330 333 331 327 336 344 340 346 353 351 352 357 359 356 356 361 367 364 360 360 361 361 361 360 363 373 379 373 367 366 365 363 359 356 354 354 352 352 350 346 343 342 342 342 340 340 341 340 338 335 334 337 339 339 338 339 339 338 337 336 335 334 334 334 334 334 334 334 335 335 335 334 333 331
318 324 326 324 322 319 316 320 326 329 329 330 331 332 335 339 337 336 337 340 351 359 354 351 354 355 352 353 358 360 361 361 359 357 354 356 359 357 365 377 378 370 366 364 361 359 355 354 354 353 351 347 342 341 341 341 341 340 339 340 338 337 335 335 338 338 336 336 335 336 336 336 336 335 334 334 334 334 334 334 335 335 335 335 334 332 329
317 325 329 325 319 316 320 331 334 334 334 333 332 332 336 344 347 343 343 347 350 350 350 351 353 351 350 353 355 357 365 371 365 358 357 358 360 359 361 369 374 371 366 360 356 356 357 355 353 352 349 345 342 341 340 340 340 340 340 339 339 338 337 336 338 338 336 336 335 335 336 336 335 336 335 335 336 335 335 335 335 335 336 335 333 332 330
322 329 331 321 317 322 333 339 337 335 336 338 338 339 340 343 348 350 349 350 352 353 353 354 354 352 354 361 365 360 362 368 368 364 365 365 365 365 361 358 363 373 373 360 354 357 358 353 350 348 346 343 341 340 339 340 340 339 338 338 339 341 340 338 340 341 339 337 336 336 336 336 337 336 336 335 335 335 335 335 336 336 336 335 333 331 329
326 324 322 320 325 337 341 339 338 337 341 344 342 342 347 345 349 354 351 350 354 358 357 356 355 353 355 361 363 354 348 351 352 349 353 359 359 358 359 356 356 363 366 362 358 356 352 346 345 344 342 340 339 339 338 338 338 338 338 337 338 339 341 342 343 342 339 338 338 338 337 337 336 336 335 335 334 335 335 335 336 337 336 335 334 331 329
333 321 320 325 329 333 336 338 341 339 338 342 339 337 344 348 346 354 360 355 353 355 354 351 350 349 353 354 352 347 344 345 346 343 344 347 350 353 357 354 350 352 357 360 356 350 345 344 343 340 338 338 338 338 337 337 337 337 337 337 337 338 341 344 344 342 340 339 338 338 338 336 335 335 335 334 334 334 336 336 337 336 334 334 333 331 330
339 324 321 326 321 321 333 344 348 340 332 341 345 338 342 351 347 352 363 359 350 350 351 350 354 358 358 351 345 345 344 342 344 345 343 342 345 349 351 350 352 355 357 354 348 343 342 341 339 338 337 337 337 337 337 337 336 336 337 336 337 337 339 344 345 343 341 340 338 338 337 336 335 334 334 334 335 336 335 335 335 332 332 332 333 331 330
333 322 321 324 319 324 343 348 344 338 332 342 349 338 338 350 351 347 352 354 355 353 350 355 364 362 355 347 341 342 339 336 340 346 350 354 352 346 347 352 352 349 348 346 345 343 339 336 335 336 336 337 338 337 337 336 336 336 336 337 337 337 338 342 345 343 342 341 340 339 338 336 335 334 334 334 334 334 334 333 331 331 332 332 331 330 329
329 325 324 323 321 334 353 345 335 336 338 342 341 330 335 351 354 350 347 349 357 354 348 355 364 362 358 354 346 340 339 340 345 351 359 364 355 347 349 350 348 347 347 346 344 341 338 335 335 335 336 336 337 336 335 335 336 337 337 337 337 337 339 343 344 343 342 342 342 339 337 336 334 334 334 334 334 334 333 331 330 330 331 331 331 330 330
325 325 323 321 325 343 352 339 332 336 335 333 329 330 346 357 352 349 343 343 350 350 348 354 357 354 355 352 343 340 342 347 351 351 353 351 343 345 349 345 345 345 344 344 343 341 338 335 333 333 335 335 335 335 334 335 336 337 337 338 337 339 342 344 343 342 342 343 341 339 336 335 334 334 335 334 334 332 330 330 331 331 331 331 331 331 331
328 327 325 320 328 350 349 334 336 341 338 337 338 348 359 353 344 346 344 341 345 347 347 350 348 345 345 343 343 344 346 352 359 363 361 355 349 349 346 344 343 341 340 341 341 339 337 335 333 334 336 336 335 335 334 334 336 336 337 338 339 341 342 341 340 341 341 341 340 338 336 335 335 335 334 332 331 331 330 331 331 331 332 332 332 332 332
335 331 328 323 334 356 350 340 353 357 349 352 362 362 353 344 341 345 344 345 347 346 346 348 346 345 345 345 349 350 347 353 365 371 370 365 355 347 344 343 342 340 340 339 338 338 337 336 336 335 335 336 335 336 337 338 338 338 339 339 341 341 341 340 340 341 340 340 338 336 336 336 335 334 332 331 331 331 330 327 327 331 333 333 332 332 331
341 334 335 334 341 350 343 344 359 358 352 359 364 355 346 343 344 345 346 348 349 347 348 348 347 347 347 347 350 348 348 355 364 367 365 360 353 347 344 343 342 340 338 338 337 337 337 336 336 335 335 336 337 339 342 342 342 342 342 341 343 343 342 342 342 342 341 339 337 336 335 334 334 332 332 331 331 329 326 326 328 331 333 332 332 331 330
347 343 348 347 344 343 338 340 350 347 345 350 350 344 344 344 345 346 348 348 348 348 349 349 349 350 349 346 345 349 357 365 365 362 358 352 350 350 346 343 342 340 339 338 337 336 336 335 334 333 334 339 343 344 344 341 340 341 339 337 338 338 338 340 340 340 340 337 336 335 333 332 332 331 330 329 328 326 326 328 330 331 331 331 332 331 329
351 350 349 343 342 343 339 336 339 338 338 341 342 344 343 342 343 345 346 348 350 348 346 349 351 351 349 350 353 359 367 368 361 357 353 347 345 347 347 345 344 342 340 340 339 337 336 336 337 338 339 343 344 342 340 339 338 337 336 334 333 334 335 336 337 338 338 336 334 333 331 331 330 329 328 327 326 327 329 331 331 331 332 333 332 330 329
351 353 350 343 340 342 339 337 337 335 334 336 340 346 344 341 341 342 343 345 346 344 349 355 357 355 357 365 368 367 367 365 360 359 358 353 346 343 342 345 346 345 344 344 343 342 340 339 339 338 338 338 336 335 336 336 336 336 335 333 332 332 334 335 336 336 335 333 332 331 330 329 328 327 326 326 326 329 332 332 331 330 330 331 330 329 328
350 350 346 340 338 338 336 337 338 338 337 337 338 340 339 338 338 339 340 341 341 343 352 358 359 360 363 367 367 363 361 360 359 359 357 352 347 343 341 343 345 346 346 346 344 342 340 338 335 334 334 332 331 334 337 336 335 337 336 335 335 335 335 335 336 334 333 333 333 331 328 327 327 327 328 328 329 331 331 330 328 326 326 327 326 325 326
350 347 347 347 343 341 338 335 337 341 342 339 338 336 335 336 337 337 337 339 340 343 350 356 361 362 362 362 361 357 355 355 356 354 351 346 345 343 342 342 344 344 345 345 343 341 339 337 336 335 334 332 332 335 338 336 335 338 339 339 339 336 335 335 334 333 333 334 332 328 327 328 329 329 328 329 330 329 327 325 324 323 324 324 323 322 324
350 347 352 353 350 351 347 337 335 340 340 338 339 338 334 334 336 334 333 335 340 343 346 353 361 363 361 359 356 354 354 354 352 349 346 344 343 343 341 341 343 342 342 343 344 342 340 339 337 335 334 334 335 336 336 334 337 340 340 340 338 337 337 336 334 333 332 332 330 328 328 330 329 326 326 326 326 325 324 323 323 322 322 322 321 321 322
347 340 342 344 347 353 351 340 336 340 339 338 339 336 333 334 334 333 332 334 338 340 342 347 357 362 360 355 354 353 353 351 348 346 344 344 345 342 340 340 341 341 342 342 342 340 338 336 334 332 330 330 333 335 335 335 338 340 340 339 338 337 337 337 335 333 331 330 329 330 331 330 327 325 324 323 322 322 322 321 321 321 321 320 320 320 320
333 330 333 338 342 346 344 339 337 337 336 335 334 331 331 332 331 331 333 336 339 340 339 342 348 355 356 354 354 357 356 351 347 346 345 345 345 343 341 340 341 343 344 342 340 338 336 334 333 331 327 327 330 334 336 337 338 338 338 339 337 334 334 334 335 333 332 330 330 331 331 330 327 325 323 321 319 319 319 319 319 319 319 319 318 318 318
325 328 331 335 339 341 338 336 334 333 333 334 332 333 334 334 333 334 337 339 340 338 334 335 340 345 350 351 351 354 355 351 347 346 344 343 344 344 343 343 343 343 342 341 339 338 335 332 330 329 329 330 333 334 334 335 336 337 336 336 336 334 333 333 333 332 332 331 331 329 330 330 327 325 324 322 320 318 318 318 319 318 318 318 317 315 315
326 328 327 327 332 334 333 331 329 327 328 329 331 335 338 337 339 339 334 332 331 329 328 331 334 337 342 345 345 348 349 348 345 341 338 338 339 339 341 344 344 343 341 340 339 335 331 328 327 328 330 332 333 333 334 335 335 334 334 334 334 334 334 333 331 331 331 331 330 329 328 329 329 327 326 325 323 320 318 317 317 317 317 316 315 314 313
327 327 324 325 328 328 328 329 328 326 327 328 330 332 332 330 332 331 326 324 326 324 325 326 328 334 340 341 341 344 347 346 345 341 338 338 337 336 338 340 340 339 338 337 335 334 332 330 329 330 333 332 331 332 333 333 332 332 333 333 333 334 333 332 330 329 329 329 330 329 329 329 329 329 329 327 325 323 321 318 316 316 316 315 314 313 312
328 327 326 326 328 327 327 329 330 330 330 330 330 328 326 324 324 325 324 325 326 325 325 324 326 333 340 341 340 345 348 349 347 343 341 340 337 335 338 339 338 336 337 337 336 335 333 331 331 333 333 331 330 331 331 330 330 331 331 332 332 331 332 331 329 328 328 329 330 330 330 329 329 329 329 328 325 324 323 321 318 318 317 315 314 313 313
326 328 328 328 327 325 327 331 334 332 330 329 328 327 325 324 325 325 326 326 326 326 326 325 325 329 333 334 337 344 350 351 349 344 341 340 337 336 339 341 339 338 337 336 334 332 330 331 333 333 332 331 329 330 330 331 331 331 331 331 331 330 331 331 330 329 329 330 330 329 329 329 328 327 326 326 326 325 324 323 321 320 318 316 314 314 314
327 327 326 326 326 325 327 332 335 331 330 330 329 327 326 327 327 327 327 328 329 329 328 328 329 329 328 329 333 339 344 345 344 341 339 338 337 337 338 339 339 337 335 333 332 331 331 333 334 334 332 331 330 330 330 330 330 331 331 331 331 331 331 331 331 330 330 330 330 329 328 328 327 325 324 324 325 324 323 323 323 321 319 316 314 314 313
327 325 324 325 326 325 327 332 333 330 329 330 327 326 327 328 329 330 330 330 332 331 331 332 334 333 330 331 334 337 339 339 340 340 338 335 335 337 336 337 338 335 332 331 330 330 330 334 335 334 332 331 330 329 330 330 330 331 332 331 330 330 330 330 331 330 329 329 328 328 328 327 325 324 323 323 323 322 321 321 321 320 318 315 313 312 311
326 325 325 326 326 325 327 330 330 327 327 327 325 327 329 328 328 328 328 328 328 328 329 333 334 333 335 339 340 340 340 340 338 337 336 335 335 335 334 334 335 333 331 330 331 331 331 333 335 334 331 330 329 329 329 329 330 331 331 331 330 328 328 329 330 328 328 328 328 328 327 326 324 324 323 322 321 321 319 318 317 316 314 312 311 311 310
327 327 328 328 327 326 327 328 327 325 324 322 322 324 326 327 327 327 326 326 327 327 328 330 328 327 333 340 341 339 339 339 338 336 336 335 335 334 332 331 332 331 330 331 331 332 333 334 334 333 330 329 328 328 328 329 330 331 330 330 329 327 326 327 328 328 327 328 328 327 327 325 324 323 322 320 319 319 317 316 315 314 312 311 311 310 308
326 327 326 326 325 325 325 325 324 324 323 321 321 321 322 323 324 325 326 326 326 326 327 327 324 323 331 339 340 338 340 343 344 340 335 333 332 331 330 331 331 330 330 331 331 330 330 331 332 331 330 328 328 328 328 328 329 330 330 328 327 326 326 326 327 327 327 326 326 326 325 324 323 322 320 319 318 317 317 316 315 314 312 311 310 309 308
324 324 324 323 324 323 323 323 323 323 322 322 322 321 322 321 321 322 325 326 326 325 324 324 322 323 332 340 341 339 340 342 341 337 333 332 332 331 331 331 330 329 329 329 329 328 328 329 330 329 328 327 327 328 328 327 327 328 328 327 326 327 326 325 326 326 325 325 325 324 323 322 322 321 320 319 319 318 317 317 317 315 313 310 309 308 307
322 323 325 325 324 323 322 323 323 322 323 324 323 323 323 322 321 322 324 325 325 323 322 323 321 322 331 340 341 338 337 337 336 334 333 333 332 331 331 330 328 327 328 328 328 328 327 327 328 328 327 327 327 327 327 327 327 327 327 326 326 326 325 325 325 324 324 323 323 322 321 321 321 320 319 319 318 317 317 317 318 316 313 311 309 308 306
321 322 324 324 324 322 321 322 322 322 323 323 323 323 323 323 323 323 324 324 324 324 325 325 324 323 329 338 339 336 335 335 335 335 333 331 330 330 330 329 328 328 328 327 327 328 327 328 327 327 326 326 326 325 325 326 326 325 325 325 325 324 324 324 323 323 322 322 321 321 321 321 320 319 319 318 316 316 317 316 316 315 313 311 309 308 307
321 321 322 322 321 321 321 321 321 320 321 321 321 321 322 323 323 324 325 326 326 325 326 327 325 325 329 336 337 334 334 334 334 333 332 330 330 331 330 329 330 330 328 326 326 327 327 326 325 325 325 325 325 324 324 324 325 324 324 324 323 323 322 322 322 322 321 321 320 320 320 319 319 318 318 317 316 316 316 314 313 312 312 311 309 308 308
321 321 320 321 320 321 321 320 320 320 321 322 321 321 322 323 324 325 327 326 325 325 326 326 325 326 331 335 335 334 334 333 333 332 331 330 329 329 328 328 328 329 327 326 326 325 324 323 323 324 324 323 324 323 322 322 323 322 322 323 323 322 321 321 321 321 321 320 320 320 319 318 318 317 317 316 316 315 314 312 312 311 311 311 310 308 308
321 321 320 320 320 320 320 320 321 322 322 321 322 322 323 323 324 326 326 325 324 325 326 326 325 326 328 330 331 332 332 331 330 329 328 328 328 328 328 327 327 326 326 325 324 323 322 322 323 323 322 321 321 321 319 319 320 320 319 320 322 321 321 321 321 320 321 320 319 318 317 317 317 316 315 315 314 314 313 312 312 311 311 311 310 309 308
321 320 320 320 320 320 320 320 321 321 321 322 322 322 322 324 325 326 326 326 326 327 327 327 327 326 325 325 327 329 329 329 329 328 328 328 327 326 327 327 326 326 326 324 323 323 323 322 322 322 321 319 319 318 317 318 318 317 316 317 319 319 319 319 319 319 320 319 317 316 315 315 315 315 314 313 313 313 313 312 312 311 311 310 309 309 308
320 321 321 320 321 321 321 321 322 322 322 322 322 323 324 325 326 326 326 326 327 327 326 325 326 326 325 324 326 328 328 328 327 327 326 325 325 326 327 327 325 324 324 324 322 322 322 321 320 320 319 318 318 318 317 317 317 316 315 314 314 315 316 316 316 316 317 316 315 315 314 314 314 313 313 313 312 312 311 311 310 310 309 309 308 308 307
321 321 321 322 322 322 321 321 322 322 322 322 323 324 325 326 326 326 326 325 325 325 325 324 324 324 324 323 324 326 327 327 327 326 325 325 325 325 326 326 324 323 323 323 321 320 319 319 319 318 318 318 317 316 315 315 314 312 312 311 311 312 313 314 314 315 315 315 315 314 314 314 313 313 313 313 312 312 311 310 309 308 308 307 307 306 306
322 322 322 322 322 323 323 322 322 322 323 323 323 324 325 325 325 325 326 325 323 323 324 324 323 323 323 323 324 326 327 327 327 326 326 325 325 325 325 324 323 322 322 320 319 318 318 318 317 316 317 317 316 315 314 314 312 311 310 310 310 310 310 310 311 312 313 314 314 313 312 312 312 311 311 310 310 309 310 310 309 308 307 307 306 305 305
322 322 322 323 323 323 323 322 322 323 324 323 323 323 324 324 323 324 325 325 323 322 323 323 322 323 323 324 325 326 326 326 327 326 325 325 325 325 324 322 321 321 321 319 318 318 317 317 316 316 316 315 314 312 311 311 310 310 309 309 308 308 308 308 308 309 309 311 312 311 310 310 309 309 308 308 307 307 308 308 309 308 306 306 306 305 305
323 322 323 323 323 323 323 323 323 323 324 324 323 324 324 324 323 323 323 324 323 322 323 323 324 324 325 325 325 325 325 325 325 325 324 324 324 324 323 322 322 321 321 319 318 317 316 316 316 314 312 311 309 307 306 307 308 309 309 308 307 307 307 307 307 306 307 308 309 310 310 309 308 308 307 307 306 306 306 306 307 306 305 305 305 305 304
324 324 324 323 323 323 323 323 323 323 323 324 324 323 323 324 324 324 322 322 322 323 323 324 325 325 325 324 324 324 324 324 324 323 323 322 323 323 322 322 322 321 321 319 317 316 316 315 313 310 308 308 307 307 307 308 309 309 308 307 307 307 306 306 306 305 306 306 307 309 309 308 307 307 307 306 306 305 305 305 305 304 304 304 305 304 304
324 325 325 325 325 324 323 323 324 324 324 324 324 323 322 323 324 324 323 323 324 324 324 324 325 325 324 324 324 323 323 324 325 324 322 321 322 322 321 320 320 321 320 318 316 315 315 314 311 308 307 308 308 307 308 309 309 308 307 306 306 306 305 305 305 305 305 305 306 307 308 307 307 306 306 305 305 305 304 304 304 304 304 304 304 304 304
323 324 325 325 325 325 324 324 324 324 324 324 324 324 324 324 324 325 324 324 324 325 324 324 324 324 324 324 324 323 322 323 323 322 321 321 321 321 320 318 318 318 318 316 315 314 312 309 307 307 308 308 308 307 308 308 308 308 308 307 306 305 305 305 305 305 305 304 304 305 306 306 306 306 305 305 304 304 304 304 304 304 304 304 304 304 304
323 324 325 325 325 325 325 324 324 325 324 324 324 324 324 324 325 325 325 324 324 324 324 324 323 322 323 324 323 322 322 322 321 321 320 320 320 320 319 318 317 316 314 314 313 312 310 307 306 307 308 309 308 308 308 308 308 308 308 307 305 305 305 305 304 304 304 304 303 304 305 305 305 305 304 304 304 304 304 304 303 303 303 304 304 304 304
324 325 325 325 324 324 324 324 324 325 324 324 324 324 324 325 324 324 323 323 324 323 323 323 322 321 321 322 322 322 322 322 321 320 320 319 319 319 318 317 316 315 313 312 312 311 309 307 306 307 308 308 309 309 309 308 309 308 308 307 306 305 305 304 304 304 303 303 303 304 304 304 304 304 304 304 304 304 304 304 304 304 304 304 303 303 304
324 324 324 323 323 323 323 323 324 323 323 323 323 322 323 324 324 323 323 323 323 322 322 322 322 321 321 321 321 321 321 321 321 320 320 319 318 318 317 316 315 314 313 312 312 312 310 308 308 308 308 308 308 309 309 309 309 308 308 308 307 306 305 304 304 303 303 303 303 303 303 304 304 304 303 304 304 304 304 303 304 304 304 304 303 303 303
Wind_Speed
10 9 6 5 8 8 8 8 12 15 16 15 10 7 6 8 8 6 9 15 16 13 12 11 10 10 10 9 9 8 8 7 7 8 8 9 9 10 11 11 12 14 14 13 12 14 20 24 25 26 28 29 30 32 33 32 33 36 35 36 37 35 32 31 29 27 24 22 23 23 23 22 20 19 18 16 15 15 15 14 13 11 9 10 12 14 15
7 8 7 6 5 7 10 9 9 10 13 14 12 10 8 7 8 8 9 13 13 11 12 12 11 9 10 9 8 8 8 8 8 8 8 8 8 9 10 10 11 13 15 15 15 15 18 23 26 26 26 28 30 31 32 30 31 34 37 39 39 36 32 30 28 27 25 25 26 25 25 23 21 20 18 17 15 15 15 14 13 12 12 13 13 15 16
2 3 4 8 10 8 7 7 8 6 7 8 8 8 8 8 8 7 10 11 9 7 10 11 8 8 9 9 8 9 8 7 8 7 6 5 5 6 8 9 9 11 13 15 15 15 18 24 26 27 28 29 27 24 24 25 27 34 40 40 37 36 32 26 23 25 27 27 26 28 27 24 22 21 18 17 15 14 14 14 14 15 15 15 15 15 16
2 3 5 11 14 12 9 9 10 9 6 6 5 5 6 7 9 8 9 9 8 7 7 8 8 9 9 8 8 8 7 7 7 6 5 3 0 2 5 8 9 10 11 12 13 15 19 23 25 27 26 19 16 16 16 17 20 29 36 37 35 32 24 17 18 23 25 25 24 26 26 23 22 20 18 16 15 15 15 16 17 17 17 16 16 16 15
1 3 8 10 9 11 10 8 7 6 4 3 5 5 6 5 6 8 7 6 6 5 7 8 8 10 9 8 7 7 7 7 7 6 4 2 2 3 4 6 10 10 9 10 12 16 21 25 26 26 22 23 25 25 28 29 29 30 30 28 25 19 12 8 19 23 23 24 24 23 24 23 21 19 17 17 17 17 17 18 18 18 18 17 16 17 16
0 4 7 9 5 4 5 2 1 3 5 7 7 6 6 8 5 1 4 4 4 7 8 8 9 9 8 7 7 7 7 7 6 4 4 4 4 5 5 5 7 10 11 10 13 18 23 23 22 23 25 29 33 36 39 40 39 34 28 23 20 14 6 11 21 25 26 26 25 25 25 23 21 19 19 18 18 18 19 19 19 18 18 16 16 16 17
1 3 5 4 5 4 3 4 5 5 7 8 8 7 4 9 9 8 8 8 7 8 8 8 9 8 7 7 7 7 8 7 6 6 6 6 5 6 6 7 8 8 9 11 14 16 16 18 25 29 31 34 35 34 34 32 28 25 23 21 18 12 13 20 25 28 29 28 27 27 26 24 22 21 20 19 20 20 20 19 19 17 16 15 15 15 16
2 2 3 1 5 4 3 6 6 5 6 7 7 6 4 6 7 6 6 6 7 8 7 6 7 7 7 7 6 5 6 4 5 7 7 6 6 7 7 9 10 7 9 15 14 11 19 24 27 29 30 31 30 28 28 26 22 20 20 18 13 13 22 26 28 30 29 28 28 28 26 24 23 22 21 21 21 21 21 19 18 17 16 16 16 16 17
2 2 1 1 4 5 3 2 2 2 3 2 4 2 4 2 4 6 7 7 7 8 8 6 6 7 7 7 6 4 4 3 4 6 8 7 5 5 4 6 6 6 6 7 13 24 29 29 29 29 31 33 33 31 30 29 26 22 20 21 23 25 27 28 29 30 28 28 28 27 25 25 23 23 22 22 21 21 21 19 18 17 16 16 17 18 18
2 2 1 1 3 5 3 2 1 1 2 4 3 4 4 5 4 2 6 8 6 7 9 7 7 7 7 5 4 5 5 5 4 2 7 6 2 1 3 6 10 17 20 23 27 27 24 21 19 21 25 29 33 34 33 32 29 26 26 29 31 29 27 28 29 30 29 29 29 28 27 27 26 25 24 22 20 19 19 18 15 13 13 16 17 15 11
2 1 1 1 2 3 2 3 3 1 3 3 4 3 5 5 6 5 3 6 6 8 9 7 6 7 5 3 1 4 6 7 6 3 4 6 6 7 12 19 25 31 36 35 30 25 23 23 20 17 17 19 20 20 23 23 23 25 29 32 32 30 28 29 30 30 30 30 29 30 30 29 28 27 25 22 19 18 16 14 10 9 10 12 12 9 7
4 3 3 2 2 3 2 2 3 3 3 1 3 2 7 5 6 5 5 8 6 7 8 7 6 6 4 5 3 4 9 9 7 4 4 7 7 9 18 27 30 33 35 32 27 26 27 27 25 22 21 22 19 16 18 22 22 25 29 32 31 29 29 31 32 31 31 31 31 32 31 31 29 28 25 21 17 15 12 9 6 7 8 8 6 6 8
4 6 5 3 2 2 3 5 5 5 4 1 3 5 6 4 7 7 9 11 8 7 7 6 5 4 4 4 4 7 9 7 7 6 4 4 8 15 24 29 29 29 30 30 29 29 30 31 30 27 26 26 25 24 25 26 27 29 29 28 26 27 29 31 31 31 31 32 33 33 31 30 28 26 22 18 14 10 7 4 4 7 10 9 7 7 10
1 2 3 2 2 2 4 6 7 6 3 2 4 4 2 4 7 8 10 11 9 8 7 7 6 5 6 7 7 8 8 6 6 7 7 6 11 19 25 29 29 28 26 27 28 28 29 31 32 31 29 26 26 26 23 21 23 23 21 22 25 29 31 30 29 29 30 30 31 31 28 27 25 21 17 14 11 7 4 3 7 10 11 10 8 8 9
1 2 2 1 3 6 4 3 6 5 0 3 3 2 5 7 7 8 10 10 9 8 8 7 7 7 8 9 8 8 8 7 6 7 8 8 11 16 19 21 26 27 23 22 25 26 28 30 30 31 29 25 22 19 16 16 18 18 21 26 30 30 29 27 26 26 25 25 26 25 23 22 20 16 12 9 7 4 2 9 13 13 9 8 7 8 8
2 1 1 1 4 7 2 4 2 1 2 2 1 3 4 6 6 6 7 7 8 8 8 8 8 8 8 8 8 7 8 7 7 7 7 7 10 14 16 17 22 26 23 21 23 26 28 30 31 30 27 22 18 15 13 14 17 18 20 21 20 19 17 15 15 15 16 16 17 18 18 17 15 13 10 7 3 3 9 14 15 12 9 8 7 5 5
2 3 3 3 1 7 5 5 4 4 5 3 3 5 5 5 5 6 6 7 8 8 8 7 7 6 6 7 7 7 7 7 7 7 6 7 9 11 13 15 20 25 26 25 24 25 27 30 31 30 24 18 16 16 16 16 16 17 16 14 14 13 11 10 11 12 14 15 16 16 16 14 13 11 9 4 2 8 10 11 13 12 11 9 5 3 3
3 4 4 3 2 5 8 8 7 7 8 7 6 8 7 5 6 7 7 7 7 8 9 8 6 6 6 6 7 6 7 6 6 6 6 7 10 12 12 13 16 20 24 24 23 22 23 24 24 24 21 18 19 17 14 12 11 11 10 10 12 12 9 10 13 15 17 19 18 16 14 13 12 9 5 1 5 6 7 9 10 10 8 6 5 3 3
2 3 7 6 4 5 6 8 9 9 9 8 7 7 7 6 7 7 7 7 8 8 9 9 7 7 6 7 7 6 6 5 5 6 5 4 7 11 14 16 18 19 20 21 20 20 19 19 20 21 19 18 16 13 12 10 9 8 7 8 12 13 13 14 16 19 20 18 14 13 12 12 9 5 3 4 5 6 7 7 6 4 2 3 4 4 4
3 2 5 6 6 8 7 7 7 7 7 8 8 8 8 8 8 8 8 8 8 7 7 7 7 6 6 6 6 5 4 4 4 5 4 4 6 10 14 17 18 18 19 19 21 21 20 18 18 18 16 12 11 13 14 10 8 9 8 7 10 13 14 16 16 16 15 13 12 13 12 9 5 3 2 3 5 9 9 7 6 4 3 4 4 3 5
3 2 4 7 6 7 8 8 7 6 6 7 8 9 9 9 9 9 9 9 8 7 6 6 6 5 4 3 5 5 4 4 4 4 5 7 8 11 15 17 19 18 18 17 18 18 16 12 9 8 6 5 8 13 14 10 9 11 11 10 11 11 11 11 11 10 11 13 15 14 9 7 7 8 7 8 9 10 8 6 4 4 4 5 5 4 6
1 1 1 1 0 1 4 5 7 7 6 6 7 8 8 8 8 8 8 8 8 7 5 6 7 5 4 3 4 6 4 4 5 5 7 9 10 12 15 19 21 22 20 18 17 16 14 12 12 12 13 12 10 10 10 9 10 13 13 12 11 10 10 9 9 10 12 14 14 13 11 12 13 11 9 9 8 8 6 4 3 2 2 4 4 5 6
3 3 3 4 4 2 3 5 6 5 5 5 5 8 9 8 8 8 8 7 7 7 6 2 6 6 2 1 4 5 4 5 6 6 7 9 10 11 14 15 16 17 17 17 19 19 17 17 18 16 15 14 8 6 8 11 14 14 13 14 11 8 9 12 15 17 16 15 16 18 17 16 15 13 12 11 8 7 7 5 4 3 2 2 3 3 4
5 4 4 5 5 3 3 4 5 6 6 6 6 7 8 7 7 7 6 6 6 6 7 4 4 8 6 5 6 6 5 6 7 8 9 10 11 13 13 14 14 14 15 17 19 19 18 19 20 18 12 5 8 13 14 15 16 14 13 13 10 7 9 13 18 19 16 14 17 19 17 16 16 16 16 15 12 10 8 7 5 5 4 4 4 3 1
5 2 2 4 5 3 3 2 5 6 7 7 7 6 7 6 6 5 5 6 6 6 8 8 5 8 9 6 6 8 7 6 6 8 11 12 12 13 13 14 16 17 16 16 19 21 21 19 14 11 8 9 17 19 17 15 15 14 13 12 10 8 8 11 13 14 12 11 14 16 15 16 18 19 19 18 16 13 11 9 8 7 7 6 6 6 6
5 1 2 1 3 3 4 5 6 7 7 6 5 5 5 6 6 6 6 7 7 8 8 9 7 8 10 8 9 10 9 8 9 12 13 12 12 12 12 15 18 20 19 18 20 24 23 17 11 10 14 18 19 18 17 16 15 13 12 11 10 8 7 8 9 9 10 10 11 12 13 15 18 20 19 18 17 16 15 12 10 9 9 8 8 9 9
4 2 2 1 3 6 6 4 3 4 4 4 4 4 6 7 8 8 8 9 9 9 10 10 9 5 6 9 11 13 13 12 12 12 11 11 11 11 15 19 21 23 23 22 21 21 19 15 14 16 19 19 17 16 17 15 13 12 11 10 10 9 8 8 8 7 9 11 12 12 13 13 14 14 15 15 16 17 16 14 13 12 11 9 9 10 10
5 5 5 5 5 5 4 3 4 5 5 6 6 6 8 10 9 9 9 8 8 11 12 13 13 10 5 6 7 9 10 10 9 8 10 12 10 10 16 24 24 23 23 21 19 19 18 17 18 20 19 16 14 14 15 13 11 11 10 8 8 7 8 8 8 8 9 11 12 13 14 13 12 12 12 14 15 15 15 15 15 14 13 11 11 10 9
6 6 6 6 5 5 6 6 6 6 7 8 8 8 8 9 8 7 8 8 8 9 10 12 13 12 10 9 7 5 7 7 7 9 11 10 5 6 16 24 23 20 20 19 19 21 21 20 21 22 19 15 13 12 12 12 11 9 8 8 8 6 7 8 9 9 10 11 11 12 14 14 13 13 12 12 13 13 13 15 16 15 15 14 13 11 8
6 6 7 7 7 8 8 8 7 7 7 7 8 7 7 7 6 6 7 8 8 8 8 9 11 10 10 12 11 7 8 11 12 12 12 11 8 11 20 23 18 13 13 14 14 15 15 14 17 19 15 11 11 11 10 9 9 8 7 7 7 7 7 8 8 9 10 11 11 13 14 13 13 13 13 12 12 13 12 13 15 16 16 15 14 12 7
7 9 10 10 9 9 8 7 7 7 7 7 7 7 6 6 6 6 7 6 6 7 8 8 8 8 10 13 14 9 6 10 11 11 12 12 13 16 19 19 16 14 13 13 13 14 14 14 14 13 9 6 8 10 9 8 8 8 7 7 7 6 7 8 7 7 9 11 11 12 12 12 12 13 13 12 12 12 11 11 13 15 16 15 13 9 5
9 10 10 10 8 8 7 7 6 6 7 7 7 7 6 6 6 6 6 6 6 8 9 8 8 9 10 10 10 6 5 8 10 12 13 13 14 14 14 15 18 19 18 14 9 8 13 19 17 11 7 6 8 7 7 7 7 8 8 8 7 6 7 8 7 7 9 10 11 11 12 13 12 12 13 13 13 13 13 12 11 13 15 14 10 6 3
8 8 7 6 6 6 6 6 6 7 7 7 7 7 6 7 6 5 6 7 7 8 8 8 12 15 12 5 5 5 7 9 8 9 10 10 12 12 12 14 17 17 14 11 5 2 5 13 15 9 6 6 7 6 4 5 6 7 8 8 8 8 8 8 8 9 10 10 10 11 12 13 12 11 13 16 15 13 13 13 12 12 12 11 8 6 5
6 6 5 5 5 5 6 6 5 6 6 6 6 7 7 7 6 7 7 7 7 8 9 11 18 22 16 4 4 5 7 6 4 5 8 11 13 14 15 16 17 15 12 11 10 7 4 6 9 8 5 4 6 6 4 4 5 6 7 7 8 9 8 8 8 10 11 10 10 12 13 14 12 10 12 14 15 14 13 13 12 13 12 11 9 7 5
6 5 5 4 4 5 5 5 6 6 7 7 7 7 7 7 8 8 8 7 8 11 14 17 21 22 13 4 7 5 6 6 5 6 9 11 13 16 18 19 19 18 16 14 13 11 7 5 7 8 6 4 7 9 7 5 5 6 6 8 9 9 9 9 9 10 10 11 11 12 12 11 10 9 10 11 12 12 12 11 11 14 15 13 11 9 7
5 4 3 2 3 4 5 5 5 6 6 6 7 7 8 9 10 9 10 10 12 15 18 19 20 19 10 7 8 6 7 9 9 11 12 12 13 17 19 18 17 17 15 13 13 13 11 8 7 7 5 5 8 10 9 7 7 7 7 8 9 9 10 10 9 10 11 10 10 9 9 8 8 8 8 8 8 9 9 8 9 12 16 16 13 11 11
8 7 5 4 4 5 5 6 8 9 8 7 8 8 9 10 12 13 15 15 15 17 18 17 17 17 11 8 11 11 12 13 13 13 15 16 16 18 18 17 15 13 11 9 11 13 12 9 7 6 6 6 7 7 7 8 7 6 6 7 8 9 9 9 9 10 11 10 10 10 9 8 8 8 8 8 9 9 9 7 5 10 16 17 14 12 11
11 10 9 8 8 8 7 9 13 14 11 10 10 11 11 12 14 16 16 16 17 20 21 20 22 23 14 6 14 14 13 15 15 14 15 15 15 14 14 12 11 11 11 11 12 13 11 8 6 5 4 5 5 6 7 7 7 5 4 7 9 9 9 10 10 10 11 10 10 9 8 8 8 9 10 11 11 10 9 7 7 10 14 15 14 14 12
10 10 10 10 10 10 10 11 14 14 12 11 11 12 13 15 16 15 15 16 19 21 20 18 20 20 12 4 12 13 12 14 15 15 15 15 15 14 12 11 10 11 13 15 14 12 10 8 7 5 4 5 7 7 5 5 7 6 4 6 9 9 8 10 11 12 11 11 10 10 9 9 10 11 12 12 11 10 9 10 9 9 9 10 13 16 14
8 8 10 10 10 9 9 9 11 13 14 15 13 13 14 16 16 14 14 16 19 20 18 16 13 10 7 5 1 10 16 16 16 17 17 16 16 14 11 10 12 14 15 15 13 11 9 8 8 7 6 6 8 8 5 2 5 4 1 4 9 11 9 10 12 14 13 12 12 12 12 11 11 11 11 10 10 11 12 12 11 10 10 10 10 12 12
8 9 10 10 9 9 10 10 10 11 13 14 14 15 15 15 14 13 12 14 16 14 12 11 8 6 5 10 7 10 19 17 15 18 18 15 14 11 7 7 12 14 13 12 13 11 8 8 9 10 8 8 8 7 5 3 4 1 4 3 6 9 9 9 11 14 16 16 15 14 12 11 12 12 11 10 10 12 14 15 14 13 14 12 9 9 10
10 10 10 8 8 9 11 11 10 9 11 12 13 14 15 14 13 11 9 8 10 9 7 8 8 7 5 8 9 9 19 19 17 18 18 14 12 9 6 7 11 12 10 12 13 12 10 9 10 10 8 7 8 6 4 2 2 3 6 7 5 5 7 8 8 10 13 15 15 13 12 11 12 13 14 14 14 14 16 17 15 13 12 10 8 9 11
10 10 8 7 7 8 10 11 10 8 9 10 10 12 13 12 11 10 7 3 4 7 7 7 7 8 7 7 7 2 14 17 16 15 14 11 9 9 9 10 10 10 10 12 13 11 10 10 10 9 8 7 6 5 4 2 1 4 6 8 10 11 10 9 9 11 14 16 15 14 15 15 16 15 15 15 15 16 17 17 15 13 11 9 7 8 11
10 10 8 8 9 9 9 10 9 8 7 7 8 9 10 10 9 10 9 3 4 7 7 6 7 6 2 6 5 2 8 11 13 13 12 9 6 6 10 13 13 12 13 13 13 12 12 11 10 10 9 7 5 3 2 2 3 5 6 7 9 11 10 11 12 11 12 17 17 14 12 11 11 9 7 6 5 7 12 17 17 14 13 12 10 7 6
10 10 9 10 10 9 8 8 8 7 7 8 9 9 9 8 7 8 7 3 4 5 5 4 5 4 3 7 7 8 8 8 11 12 10 7 5 6 11 15 15 14 13 12 12 13 13 11 10 9 7 5 3 3 5 6 5 4 4 5 7 9 9 11 14 15 13 11 12 13 11 8 6 4 2 2 1 1 4 12 18 16 13 13 13 9 5
9 10 11 10 10 10 9 9 9 9 7 7 7 8 8 9 7 5 4 3 3 3 3 4 4 6 5 1 8 10 7 6 8 9 8 7 8 10 13 14 14 14 13 11 12 14 13 12 10 8 6 3 1 2 4 4 3 3 4 5 5 6 7 10 13 15 17 16 12 12 13 9 5 4 2 1 2 3 1 7 14 14 10 9 10 9 7
9 9 10 10 10 11 12 10 9 7 5 3 3 6 9 10 9 6 4 5 4 3 3 5 6 6 5 5 6 7 6 6 5 4 5 6 10 13 14 12 12 13 13 11 11 13 13 11 10 8 6 5 3 1 2 4 3 4 5 4 4 4 4 7 10 10 12 16 14 8 10 8 5 4 4 2 1 1 1 5 8 7 6 6 5 4 6
8 8 9 10 10 11 11 9 6 4 4 4 4 5 7 8 8 6 6 7 7 6 6 6 6 5 5 4 3 3 4 4 3 3 5 9 12 14 14 12 12 13 13 11 12 13 13 12 11 9 7 6 4 3 3 3 4 7 7 8 8 6 5 4 6 6 8 12 15 9 5 6 5 5 5 4 1 1 2 4 3 4 5 6 4 2 4
8 7 8 9 8 8 8 6 3 3 5 6 5 5 6 6 5 5 5 6 6 7 7 7 7 6 6 4 2 1 1 2 2 4 8 11 13 14 14 14 13 13 13 12 12 13 13 12 12 10 7 6 5 4 4 4 5 8 10 12 12 9 6 6 7 7 9 12 14 12 6 4 5 5 5 5 3 2 4 5 4 3 5 7 7 6 6
8 7 7 6 6 7 7 5 3 3 4 5 4 5 5 4 3 2 3 3 3 4 6 7 7 7 7 4 3 3 3 3 4 6 9 11 12 14 17 17 16 15 14 12 13 14 14 14 13 11 7 6 5 5 5 6 7 9 10 9 10 9 8 9 9 8 9 11 11 11 10 6 2 3 4 5 4 3 5 5 6 5 5 6 7 8 9
9 8 8 8 8 7 7 6 5 4 3 3 2 2 3 4 4 3 3 3 3 4 6 8 8 8 8 6 4 5 6 6 6 7 9 10 10 12 15 18 18 16 15 14 14 15 17 17 16 14 11 9 8 8 7 7 8 9 8 7 6 6 6 7 7 6 6 5 6 8 10 8 4 2 3 4 5 8 10 9 8 8 10 11 12 10 9
12 12 11 10 8 7 7 7 6 4 3 3 4 4 3 3 4 4 4 4 4 4 6 7 7 7 7 6 4 4 6 7 7 7 9 11 12 12 14 16 18 18 18 17 16 17 18 18 17 16 15 13 11 10 9 8 8 8 7 7 8 9 8 7 5 5 5 3 4 6 7 7 5 4 3 2 4 8 10 10 7 6 6 9 12 12 11
Wind_Direction
197 202 222 214 184 197 221 219 208 208 218 234 234 211 179 146 153 218 209 170 170 190 192 185 184 172 163 164 160 161 164 150 147 159 161 164 175 187 192 187 185 192 197 195 191 192 194 194 192 190 190 191 192 187 183 181 180 179 178 175 176 179 181 185 192 196 197 200 205 209 213 216 219 222 224 225 232 244 255 264 273 281 283 283 283 281 282
208 217 222 236 229 212 219 238 243 214 207 218 227 230 221 195 194 201 188 185 189 187 183 187 187 168 152 151 146 143 141 130 131 147 161 172 181 190 200 202 193 191 193 193 192 191 192 194 194 191 189 192 193 188 183 183 180 176 175 174 175 178 179 185 193 197 199 202 206 209 211 213 217 219 221 225 234 245 253 260 267 270 274 279 278 277 280
285 283 264 254 251 246 239 253 265 255 235 234 235 241 241 235 231 202 173 187 214 208 183 177 166 144 134 131 131 135 135 129 129 132 139 159 183 194 205 212 207 198 196 196 193 190 194 197 193 191 194 196 191 183 179 180 176 171 171 172 174 175 175 182 193 196 198 202 206 209 211 211 214 218 221 227 232 240 247 254 259 260 265 271 273 275 276
305 318 294 256 234 234 253 259 255 248 243 252 264 262 247 235 232 213 175 180 220 220 176 148 135 129 124 121 122 119 108 102 105 102 96 98 334 251 211 210 216 217 208 196 194 194 198 197 192 193 194 177 145 133 143 157 162 165 167 167 168 167 162 173 194 195 194 198 202 205 206 208 213 216 219 222 228 235 244 251 255 256 259 264 268 271 270
295 287 295 278 235 216 227 238 250 260 274 333 345 325 306 294 252 221 189 181 197 169 134 123 122 117 110 107 111 107 100 100 105 109 117 151 240 263 245 216 211 217 219 207 201 199 200 199 195 190 171 138 133 146 156 161 163 163 161 156 152 143 128 176 210 207 200 200 202 204 207 210 212 215 219 224 231 239 245 250 253 254 256 260 265 268 265
262 286 298 298 284 228 222 229 26 17 20 20 2 341 354 16 15 45 110 108 105 96 99 109 114 115 118 125 131 127 127 130 131 145 174 193 218 246 261 245 216 213 220 220 210 204 203 195 178 166 155 151 158 165 164 163 162 156 150 139 129 126 147 226 226 217 208 206 208 211 213 214 215 217 221 228 235 241 245 247 251 254 256 259 266 268 265
96 1 11 323 274 235 252 333 357 28 48 38 357 334 22 59 55 57 69 79 86 82 90 110 118 126 131 125 123 122 123 129 140 165 186 190 202 224 239 250 243 220 209 217 218 208 188 157 145 150 156 157 157 156 152 149 144 138 134 125 119 144 214 234 227 214 208 208 210 213 215 215 214 216 222 230 236 240 244 247 251 254 255 260 269 273 272
97 38 73 195 259 267 9 8 343 353 41 52 23 351 6 69 81 96 100 104 109 101 105 120 121 124 112 88 79 86 93 121 186 201 197 189 207 228 236 238 240 230 213 214 204 152 119 122 136 148 148 142 135 128 126 126 121 120 126 131 144 198 223 225 217 209 206 207 209 212 213 211 213 218 221 228 234 239 243 245 249 253 256 262 269 272 275
96 97 165 226 293 307 346 28 357 17 26 40 75 47 301 333 97 136 131 110 98 93 99 102 89 83 76 56 29 10 13 335 267 219 185 170 197 228 218 208 232 280 263 202 134 113 119 133 145 144 137 132 129 127 131 139 142 143 154 173 194 212 222 221 215 208 206 208 210 212 212 210 214 219 220 225 232 237 241 243 248 257 265 269 268 269 274
77 72 359 323 306 295 290 291 256 131 274 275 103 95 295 323 22 85 125 120 118 110 110 110 86 68 65 58 10 338 348 6 14 128 162 155 140 96 86 74 46 43 59 81 94 106 116 115 112 112 116 128 137 139 142 148 153 162 181 195 204 214 223 222 215 208 208 211 213 214 215 214 216 218 219 222 227 231 237 243 251 265 276 274 268 269 275
71 75 284 213 239 268 286 323 320 323 294 304 60 46 292 309 352 349 81 117 144 139 124 115 95 78 84 139 229 346 4 9 18 65 128 110 91 82 78 76 76 82 92 100 107 114 109 98 96 101 108 118 124 126 134 148 166 181 192 201 208 217 225 222 214 209 210 213 216 217 217 216 216 217 217 217 224 232 238 243 254 277 285 276 268 271 284
155 173 227 242 227 237 255 314 322 323 317 18 78 313 271 289 335 348 61 77 97 118 106 95 96 103 139 185 200 39 33 19 12 36 90 112 112 88 81 87 94 102 109 115 120 123 125 131 141 151 151 139 127 132 154 173 193 202 202 206 214 221 224 219 212 210 212 213 216 218 217 215 216 217 216 216 220 225 227 232 254 282 287 285 287 298 300
172 175 205 234 211 223 299 337 355 6 2 34 168 219 247 308 357 21 60 64 68 84 82 80 86 97 120 126 83 62 56 38 26 32 44 84 93 90 95 100 102 105 114 125 133 139 145 147 152 162 166 157 157 172 185 192 203 211 212 217 223 224 219 213 208 211 214 215 216 217 217 217 216 214 211 209 205 201 203 224 276 288 288 293 305 311 306
297 234 231 244 257 269 309 344 3 15 13 205 196 218 277 2 20 37 54 56 57 63 65 67 66 58 57 59 57 57 55 46 39 40 40 47 67 87 103 110 112 115 122 130 137 143 147 149 158 169 172 170 176 187 194 200 208 216 223 227 226 218 211 208 208 211 214 215 217 217 214 211 206 198 194 195 194 189 190 271 286 281 283 293 307 311 307
26 319 312 201 262 273 277 359 4 7 89 203 226 328 5 19 33 45 52 51 50 54 55 51 48 47 42 37 40 43 44 51 60 61 67 74 82 95 106 116 123 128 131 133 137 142 146 152 163 169 169 173 182 187 195 205 208 209 211 214 215 214 210 209 212 215 216 216 214 209 202 194 186 177 173 174 173 158 353 312 290 276 278 295 304 304 307
131 148 112 147 272 290 292 120 115 124 152 188 298 32 29 21 32 48 53 49 45 50 54 43 33 36 37 31 28 29 33 50 70 71 65 70 93 113 124 131 134 132 133 138 143 146 151 159 165 167 170 179 186 179 169 169 169 170 176 184 190 194 194 195 202 206 204 199 193 186 179 172 163 151 141 139 138 347 326 303 281 271 285 296 285 285 302
174 136 117 115 312 322 0 77 118 121 103 86 73 77 61 27 32 46 46 43 42 43 45 39 30 27 24 15 14 30 48 60 73 84 77 67 86 110 126 137 139 133 134 140 143 147 158 167 171 174 177 174 163 152 143 141 142 142 142 145 146 146 148 153 161 166 167 165 163 162 160 157 150 137 127 126 300 308 300 277 262 266 280 275 249 239 272
340 23 26 42 49 0 8 34 62 75 71 60 56 65 58 34 33 42 40 35 32 28 27 25 11 357 5 15 21 44 70 70 68 84 90 90 100 107 115 131 136 131 132 138 141 147 160 168 170 174 173 153 138 135 137 141 145 142 140 139 130 124 134 155 162 163 161 157 154 154 151 147 145 145 148 225 293 289 270 259 258 263 264 241 210 211 232
327 327 322 337 58 68 29 31 42 45 45 41 42 58 65 48 38 41 42 36 32 32 37 38 27 14 27 52 55 59 76 77 69 77 82 93 116 121 122 130 133 129 128 133 136 140 149 147 139 140 142 136 131 138 147 149 140 129 131 139 135 138 155 166 164 164 163 159 154 152 152 154 160 180 241 286 285 257 241 236 228 219 199 181 190 207 219
135 161 310 341 60 74 52 48 47 34 33 35 36 46 53 46 36 33 38 38 32 35 55 70 67 55 59 84 93 86 90 101 96 91 87 89 115 124 124 126 130 130 128 131 134 137 140 136 128 129 136 138 141 147 149 145 134 131 141 156 155 156 164 167 166 164 167 173 174 167 161 164 176 194 206 213 212 209 207 200 189 180 167 169 179 195 211
81 88 344 349 24 35 30 37 36 23 26 36 41 45 42 38 34 28 31 34 24 22 52 78 78 60 44 77 118 125 133 141 138 129 119 111 114 119 121 126 131 129 125 127 129 131 134 134 127 125 129 140 154 150 142 135 140 147 153 159 162 160 162 167 172 168 162 165 166 164 163 162 159 160 165 174 184 189 191 196 199 203 205 203 208 219 218
98 196 277 283 118 15 352 4 18 23 22 25 44 54 42 32 35 30 25 22 8 359 24 71 88 76 27 28 113 134 159 172 163 157 142 127 125 129 131 136 140 139 137 132 124 121 127 120 100 85 77 77 98 126 133 141 153 155 155 157 160 165 167 169 171 164 158 160 165 170 176 171 162 158 161 168 175 179 180 182 177 178 206 216 217 221 218
156 157 142 135 130 150 282 320 355 19 16 9 40 58 42 23 23 27 20 8 355 342 341 36 117 126 119 142 136 135 160 180 174 169 153 135 134 141 141 139 137 138 138 131 121 122 128 120 109 101 85 73 86 136 162 170 167 162 163 165 165 166 170 175 176 171 168 173 178 178 179 178 171 161 153 151 153 155 151 139 123 123 135 148 165 197 219
117 112 117 116 117 164 246 310 2 18 20 20 34 49 38 13 3 10 357 334 326 319 310 294 177 161 170 182 166 150 163 191 193 183 169 154 147 148 150 148 140 135 137 134 129 131 131 121 115 109 94 95 199 194 178 170 167 163 166 170 167 148 144 160 173 177 179 186 185 181 181 182 177 169 159 149 141 136 134 129 121 120 119 119 128 142 176
99 111 131 129 135 179 249 349 35 31 28 27 23 24 17 351 337 339 330 317 312 304 301 297 248 196 191 185 160 150 167 193 185 154 147 149 150 150 155 155 148 145 148 145 138 138 138 134 127 117 120 175 194 185 171 166 167 162 161 166 170 160 149 158 173 181 184 186 187 186 186 183 180 179 173 162 153 145 140 136 135 135 133 128 119 106 103
101 101 313 143 125 74 34 43 41 24 14 12 4 351 335 320 316 317 306 293 289 284 283 291 282 236 210 186 155 156 176 186 163 143 140 149 158 161 159 154 147 148 154 155 151 153 158 166 179 182 175 176 177 171 165 163 160 157 159 167 178 185 180 174 177 181 184 186 188 188 184 179 180 183 183 177 168 158 151 149 150 152 147 136 122 112 111
90 49 345 31 71 48 43 53 33 357 348 2 1 340 331 333 331 323 307 294 301 314 314 319 333 314 229 195 167 165 174 173 164 161 164 174 185 188 177 166 160 159 164 169 172 173 175 178 177 170 168 167 165 162 162 159 155 156 161 172 187 197 195 188 181 183 198 205 200 190 185 180 174 175 178 179 174 169 167 167 164 163 161 150 136 131 126
73 55 55 70 60 26 11 20 20 3 360 17 25 14 2 356 346 337 332 328 340 348 339 337 353 360 311 252 216 188 175 164 163 176 184 191 207 205 177 168 171 176 177 175 174 169 166 162 155 150 154 164 166 163 162 159 156 159 165 177 192 190 183 186 185 175 180 191 190 182 178 172 162 153 153 161 168 174 178 174 167 167 168 160 147 142 138
67 58 58 59 46 19 7 14 24 19 9 14 23 20 4 352 341 339 344 344 345 343 331 329 341 347 335 314 286 225 174 162 176 185 179 180 202 194 169 165 168 170 163 154 153 156 157 155 146 143 154 170 167 155 153 153 152 159 171 184 189 172 152 160 166 160 159 167 170 164 159 156 154 150 144 145 154 160 164 165 165 167 168 166 163 159 148
61 55 51 39 27 24 22 18 18 16 10 12 14 4 346 340 341 337 330 328 325 316 313 321 329 336 343 335 313 270 198 184 189 180 163 153 150 156 159 156 147 131 123 123 130 135 135 136 140 148 162 176 165 152 152 153 153 161 171 174 174 166 152 148 152 157 158 156 153 154 152 150 152 151 145 141 144 146 149 156 161 164 167 169 170 167 159
52 48 46 36 25 24 26 18 6 1 1 359 352 341 334 337 336 320 308 313 318 315 320 330 331 331 339 334 318 291 205 178 173 158 147 149 153 155 152 144 133 127 129 132 135 137 135 136 143 153 161 155 146 148 150 150 158 171 176 175 172 163 155 155 161 170 172 164 158 159 160 157 154 153 150 147 147 149 151 152 151 153 156 158 158 159 168
51 44 39 31 20 14 13 9 358 351 352 347 336 332 331 324 315 313 319 329 333 329 331 335 330 328 341 353 354 6 96 122 128 132 135 139 144 146 140 132 134 141 146 144 145 156 151 143 141 152 163 139 118 117 130 152 175 181 174 174 176 165 156 159 164 171 175 169 163 161 160 158 158 161 163 162 159 158 161 161 152 146 149 153 152 147 155
51 43 30 21 15 5 357 355 351 345 342 335 327 323 319 313 318 334 340 339 336 331 328 326 319 315 319 349 37 56 79 91 100 111 111 106 111 116 115 115 122 131 136 133 117 77 126 132 135 150 171 149 127 119 121 142 167 173 171 173 172 161 154 153 153 160 166 164 161 165 166 164 165 168 166 164 163 162 163 164 160 152 151 157 158 141 131
50 46 25 15 14 2 345 340 340 332 324 320 317 316 315 319 329 330 322 321 322 316 309 308 306 304 299 271 153 125 112 106 96 92 90 90 97 103 103 107 112 110 106 109 112 107 104 126 140 153 165 148 139 144 136 119 131 151 166 168 158 150 149 149 149 156 161 160 160 165 165 163 164 162 156 157 163 164 162 162 166 166 161 160 161 151 140
38 40 21 5 358 345 335 333 329 322 319 318 316 312 310 309 305 299 296 301 305 304 301 297 296 295 286 208 157 139 128 132 134 123 116 113 112 112 109 108 110 108 103 106 119 131 142 152 153 157 165 149 127 126 124 123 131 137 144 149 145 138 134 136 141 147 151 153 155 156 154 156 157 153 151 159 166 166 165 174 187 184 175 168 163 155 144
8 1 338 321 328 330 327 321 313 309 310 313 315 314 311 305 298 295 297 298 297 297 297 294 292 291 274 193 161 141 131 133 129 125 127 127 124 121 116 111 113 118 120 124 135 149 160 163 148 132 123 116 117 116 113 114 124 128 132 140 143 137 130 129 134 140 145 149 151 148 148 159 168 170 171 174 171 169 179 204 214 192 176 170 166 157 146
354 348 335 329 333 327 321 321 317 311 304 302 301 299 301 308 316 322 323 320 318 318 317 315 312 306 284 199 156 136 133 134 130 130 136 138 135 131 125 123 131 138 136 132 141 150 154 158 148 121 94 91 111 122 121 120 121 125 137 148 151 147 143 139 139 145 152 157 159 161 164 171 179 186 189 188 186 189 197 210 204 173 167 168 168 164 158
346 344 338 333 330 327 325 323 317 311 309 309 306 301 307 321 331 334 335 336 337 338 337 335 330 321 304 187 143 131 135 140 136 133 137 137 133 129 123 126 141 148 138 132 142 149 149 150 155 142 106 95 113 126 129 131 131 131 153 167 162 157 159 161 159 160 168 171 170 175 184 185 187 197 202 203 206 205 192 170 149 151 159 166 171 172 172
335 331 330 328 325 323 323 320 317 319 326 330 324 320 326 333 335 336 337 336 335 334 332 328 327 324 313 191 142 131 137 142 135 128 127 125 122 122 122 124 136 147 146 143 146 147 139 134 144 151 142 142 145 136 124 148 165 161 170 188 181 174 178 181 176 174 180 184 185 191 199 202 203 204 203 207 214 209 183 162 156 162 172 182 185 183 181
329 327 330 330 326 326 327 327 328 330 330 328 324 323 327 331 332 333 332 328 325 325 322 317 322 337 332 304 185 125 127 130 130 127 124 119 114 112 112 119 131 143 150 150 147 141 137 144 159 156 134 126 135 125 95 125 176 174 243 224 198 192 197 199 194 192 194 192 187 188 196 208 213 207 201 210 219 209 192 185 188 199 211 218 212 200 195
330 331 332 329 326 325 322 317 318 321 320 318 318 319 323 327 328 326 326 324 321 321 325 329 345 23 354 302 273 144 128 126 131 131 126 121 119 115 115 142 153 153 150 144 139 137 140 151 159 151 129 114 124 125 109 122 166 217 334 306 205 198 206 208 202 197 193 190 189 191 198 209 215 213 214 219 215 204 200 203 209 215 222 229 235 230 219
328 327 325 319 314 316 314 311 313 317 315 315 321 326 330 331 324 314 316 330 333 340 5 17 19 36 17 300 267 158 129 125 131 131 129 134 147 151 156 164 164 161 154 144 142 145 145 138 140 147 144 126 117 116 115 141 222 298 325 335 330 296 264 243 225 210 199 196 201 207 212 219 227 230 229 226 219 212 209 207 205 207 215 224 234 225 205
322 319 314 308 308 315 318 315 312 308 307 315 329 336 336 332 320 302 290 309 5 11 21 27 28 34 25 330 304 114 118 123 131 132 130 140 161 175 174 164 157 161 167 161 154 155 154 142 136 145 155 148 126 114 118 131 303 314 318 327 334 331 316 292 272 252 233 223 222 224 224 229 235 236 231 228 227 223 215 207 199 194 199 210 218 202 185
328 324 322 321 321 323 321 316 311 308 310 322 332 329 325 325 321 304 290 293 50 34 13 20 44 45 338 259 253 127 115 132 139 133 122 114 117 155 170 163 153 154 165 167 160 156 158 154 147 148 156 161 160 155 167 237 289 305 313 326 340 345 345 340 332 306 260 235 225 220 219 223 225 223 221 225 228 220 214 210 204 195 192 198 200 195 198
337 332 332 331 325 319 316 317 320 322 321 320 319 313 309 314 324 319 308 323 51 37 357 4 50 38 278 227 179 133 121 140 148 142 134 127 128 152 163 163 157 155 162 168 164 160 161 165 165 165 167 174 194 251 272 272 270 271 286 318 344 358 359 354 351 344 323 283 239 216 208 206 204 206 233 277 343 32 208 205 197 191 193 200 197 195 214
339 340 343 343 337 330 327 326 323 319 317 318 318 316 312 312 315 322 334 358 34 30 348 339 356 354 345 64 126 123 118 126 139 143 147 160 167 162 160 163 168 170 172 175 171 165 165 169 172 172 166 148 104 293 267 236 209 218 249 279 315 341 351 349 344 340 338 331 301 245 223 215 202 190 202 258 321 355 25 174 178 179 185 191 190 193 203
339 345 347 343 337 334 334 332 324 319 325 332 317 311 316 317 316 320 340 353 360 8 357 347 344 349 8 46 93 117 119 113 117 129 139 150 157 159 159 166 178 181 183 185 180 175 176 180 177 168 151 123 97 97 190 183 208 256 250 234 239 256 289 328 337 336 342 345 333 282 226 205 188 184 184 184 262 322 117 146 160 171 171 157 147 154 173
330 337 340 339 338 337 340 345 348 342 337 328 304 299 308 316 320 329 343 350 353 356 354 351 349 349 358 18 49 106 128 125 126 148 149 147 152 158 162 169 177 180 179 179 178 181 186 185 175 162 146 129 126 154 184 199 260 277 252 222 219 228 241 278 305 311 328 343 344 329 253 206 195 200 199 188 193 264 226 192 197 227 222 211 216 220 170
318 323 325 326 325 324 331 347 7 346 322 320 324 329 327 321 323 336 346 348 350 349 341 333 334 339 342 348 350 293 210 190 196 188 169 161 164 171 173 172 172 175 177 176 178 184 188 182 170 161 153 146 153 178 207 228 273 296 280 251 241 244 249 250 258 275 299 317 328 330 313 240 193 183 186 184 193 266 255 222 211 224 220 216 228 242 227
299 307 310 308 304 304 310 318 318 312 321 331 341 345 340 331 325 333 338 330 327 326 322 318 320 323 320 307 276 255 245 224 203 189 177 174 179 183 181 177 177 182 186 186 184 185 185 182 179 177 173 172 182 200 224 244 274 303 306 280 253 243 240 240 245 264 287 298 306 315 317 305 255 197 194 193 201 258 270 243 228 237 241 231 231 237 232
270 268 269 273 280 290 300 301 290 284 297 314 313 312 320 320 315 312 313 307 305 314 319 318 315 312 307 295 263 237 229 216 197 184 184 189 194 193 188 186 188 190 191 191 192 192 191 191 195 200 203 206 211 217 226 246 268 285 301 308 299 281 262 248 240 237 248 269 289 298 300 299 285 223 197 204 233 260 266 258 244 241 243 239 234 231 228
256 254 253 254 261 275 289 292 288 280 279 292 295 295 301 309 309 307 301 294 295 305 312 311 309 310 307 298 276 249 228 214 206 202 202 203 205 203 199 199 200 199 195 193 196 200 200 201 205 209 213 218 224 227 229 243 261 271 282 307 323 319 307 295 278 246 230 245 286 298 300 301 287 251 231 247 262 255 247 234 220 216 224 226 224 224 227